FW4822 Weather Reports


time (UTC)temp
F
wind
direction
speed
knots
gust
knots
rain 1hr
in
rain 24hr
in
rain mn
in
humidity
%
barometer
mb
20260504044524 45 269 0.0 4.3 0.00 0.00 0.00 58 1013.1
20260504043024 44 237 1.7 6.1 0.00 0.00 0.00 58 1013.1
20260504041538 45 250 1.7 5.2 0.00 0.00 0.00 57 1013.0
20260504040023 45 243 1.7 4.3 0.00 0.00 0.00 56 1013.0
20260504034523 45 254 0.9 7.0 0.00 0.00 0.00 55 1013.0
20260504033021 45 234 0.9 3.5 0.00 0.00 0.00 55 1012.9
20260504031520 46 257 0.9 2.6 0.00 0.00 0.00 54 1013.1
20260504030020 46 254 0.0 2.6 0.00 0.00 0.00 53 1013.0
20260504024519 47 255 0.0 2.6 0.00 0.00 0.00 52 1013.0
20260504023019 47 257 0.9 2.6 0.00 0.00 0.00 51 1013.1
20260504021518 47 258 0.0 3.5 0.00 0.00 0.00 50 1013.1
20260504020031 48 255 0.9 4.3 0.00 0.00 0.00 49 1013.0
20260504014521 48 271 1.7 5.2 0.00 0.00 0.00 48 1012.9
20260504013017 49 276 0.9 4.3 0.00 0.00 0.00 47 1012.7
20260504011517 49 279 0.9 6.1 0.00 0.00 0.00 46 1012.8
20260504010016 50 303 1.7 7.0 0.00 0.00 0.00 45 1012.7
20260504004516 50 279 1.7 5.2 0.00 0.00 0.00 45 1012.8
20260504003016 50 294 1.7 7.0 0.00 0.00 0.00 44 1012.6
20260504001522 51 283 0.9 7.0 0.00 0.00 0.00 44 1012.7
20260504000014 51 287 0.0 8.7 0.00 0.00 0.00 43 1012.6
20260503234515 52 309 1.7 10.4 0.00 0.00 0.00 42 1012.4
20260503233018 52 230 1.7 7.8 0.00 0.00 0.00 41 1012.4
20260503231515 53 267 2.6 11.3 0.00 0.00 0.00 40 1012.4
20260503230033 53 273 4.3 13.0 0.00 0.00 0.00 39 1012.3
20260503224515 54 263 3.5 10.4 0.00 0.00 0.00 39 1012.3
20260503223014 53 276 2.6 9.6 0.00 0.00 0.00 40 1012.4
20260503221515 53 225 3.5 12.2 0.00 0.00 0.00 40 1012.3
20260503220015 54 207 3.5 8.7 0.00 0.00 0.00 38 1012.5
20260503214534 54 296 2.6 11.3 0.00 0.00 0.00 38 1012.4
20260503213014 53 232 4.3 13.9 0.00 0.00 0.00 39 1012.3
20260503211513 53 48 1.7 11.3 0.00 0.00 0.00 39 1012.2
20260503210013 54 260 3.5 11.3 0.00 0.00 0.00 38 1012.3
20260503204512 55 225 1.7 10.4 0.00 0.00 0.00 37 1012.2
20260503203011 53 225 4.3 13.0 0.00 0.00 0.00 38 1012.4
20260503201505 53 284 3.5 7.8 0.00 0.00 0.00 39 1012.4
20260503200004 53 311 3.5 10.4 0.00 0.00 0.00 40 1012.6
20260503194508 53 295 2.6 9.6 0.00 0.00 0.00 40 1012.8
20260503193002 52 282 3.5 7.0 0.00 0.00 0.00 41 1013.3
20260503191511 51 308 2.6 14.8 0.00 0.00 0.00 42 1013.4
20260503190003 51 311 4.3 13.0 0.00 0.00 0.00 42 1013.5
20260503184503 52 262 2.6 6.1 0.00 0.00 0.00 40 1013.3
20260503183002 52 288 4.3 14.8 0.00 0.00 0.00 40 1013.6
20260503174559 53 258 3.5 13.0 0.00 0.00 0.00 37 1013.7
20260503173100 53 67 1.7 6.1 0.00 0.00 0.00 38 1013.7
20260503170106 51 281 5.2 13.9 0.00 0.00 0.00 38 1014.0
20260503110104 33 310 0.0 5.2 0.00 0.01 0.00 83 1015.3
20260503054538 35 9 0.0 1.7 0.00 0.01 0.01 76 1014.5
20260503053030 35 9 0.0 0.0 0.00 0.01 0.01 76 1014.5
20260503050033 35 11 0.0 1.7 0.00 0.01 0.01 74 1014.8